Stations météo

Publicité
Preston, Moor Park, Grande-Bretagne (99113): Température de l'air & dewpoint: 21.10.2020 17:00:00 - 27.10.2020 17:00:00 (GMT)Preston, Moor Park, Grande-Bretagne (99113): Quantités de précipitations: 21.10.2020 17:00:00 - 27.10.2020 17:00:00 (GMT)
Date & Time tt [°C] td [°C] rr [mm]
27.10.2020 17:00:00 9,6 5,5 0,0
27.10.2020 16:00:00 10,4 8,6 0,0
27.10.2020 15:00:00 9,6 8,9 0,4
27.10.2020 14:00:00 11,4 10,0 0,0
27.10.2020 13:00:00 10,3 9,5 1,0
27.10.2020 12:00:00 9,6 8,7 0,4
27.10.2020 11:00:00 9,4 7,9 0,0
27.10.2020 10:00:00 8,9 7,5 0,0
27.10.2020 09:00:00 8,0 7,1 0,2
27.10.2020 08:00:00 7,7 6,5 0,2
27.10.2020 07:00:00 7,7 5,7 0,0
27.10.2020 06:00:00 7,2 5,9 0,0
27.10.2020 05:00:00 7,9 5,9 0,0
27.10.2020 04:00:00 8,3 6,8 0,0
27.10.2020 03:00:00 8,3 7,0 0,2
27.10.2020 02:00:00 8,9 7,6 1,4
27.10.2020 01:00:00 7,8 6,1 0,0
27.10.2020 00:00:00 8,4 6,5 0,0
26.10.2020 23:00:00 8,8 6,6 0,0
26.10.2020 22:00:00 9,2 6,0 0,0
26.10.2020 21:00:00 10,0 6,6 0,0
26.10.2020 20:00:00 9,8 6,6 0,0
26.10.2020 19:00:00 10,2 6,9 0,0
26.10.2020 18:00:00 9,6 6,9 0,0
26.10.2020 17:00:00 9,6 7,6 1,6
26.10.2020 16:00:00 11,6 7,0 0,0
26.10.2020 15:00:00 11,6 6,6 0,0
26.10.2020 14:00:00 12,6 7,3 0,0
26.10.2020 13:00:00 12,2 7,3 0,0
26.10.2020 12:00:00 11,7 6,9 0,0
26.10.2020 11:00:00 11,7 7,8 0,0
26.10.2020 10:00:00 11,1 8,3 0,0
26.10.2020 09:00:00 9,8 8,5 0,2
26.10.2020 08:00:00 9,1 8,8 0,8
26.10.2020 07:00:00 8,1 7,6 2,8
26.10.2020 06:00:00 6,9 6,4 3,0
26.10.2020 05:00:00 7,1 5,9 0,4
26.10.2020 04:00:00 7,0 5,4 0,0
26.10.2020 03:00:00 6,9 5,2 0,0
26.10.2020 02:00:00 6,9 5,4 0,0
26.10.2020 01:00:00 6,8 5,1 0,0
26.10.2020 00:00:00 6,8 5,2 0,0
25.10.2020 23:00:00 7,0 5,4 0,0
25.10.2020 22:00:00 7,2 5,6 0,0
25.10.2020 21:00:00 7,1 5,2 0,0
25.10.2020 20:00:00 7,8 5,4 0,0
25.10.2020 19:00:00 8,2 5,6 0,0
25.10.2020 18:00:00 9,1 5,3 0,0
25.10.2020 17:00:00 9,8 5,3 0,0
25.10.2020 16:00:00 10,2 5,2 0,0
25.10.2020 15:00:00 11,4 5,9 0,0
25.10.2020 14:00:00 12,0 6,6 0,0
25.10.2020 13:00:00 11,6 6,4 0,0
25.10.2020 12:00:00 11,5 7,4 0,0
25.10.2020 11:00:00 9,5 6,9 0,0
25.10.2020 10:00:00 8,5 6,4 0,0
25.10.2020 09:00:00 7,8 6,3 0,0
25.10.2020 08:00:00 7,6 6,1 0,2
25.10.2020 07:00:00 7,3 5,9 0,0
25.10.2020 06:00:00 7,2 5,8 1,2
25.10.2020 05:00:00 7,4 5,2 0,0
25.10.2020 04:00:00 7,3 5,4 0,0
25.10.2020 03:00:00 7,6 6,1 0,4
25.10.2020 02:00:00 7,7 6,1 0,0
25.10.2020 01:00:00 7,6 6,1 0,0
25.10.2020 00:00:00 - - -
24.10.2020 23:00:00 7,4 5,9 0,0
24.10.2020 22:00:00 8,0 6,2 0,0
24.10.2020 21:00:00 8,2 7,7 0,0
24.10.2020 20:00:00 8,2 7,8 0,0
24.10.2020 19:00:00 8,1 7,7 0,2
24.10.2020 18:00:00 8,4 8,1 1,4
24.10.2020 17:00:00 8,4 8,1 1,8
24.10.2020 16:00:00 8,6 7,8 3,0
24.10.2020 15:00:00 10,1 9,1 3,0
24.10.2020 14:00:00 10,8 9,9 0,6
24.10.2020 13:00:00 10,9 10,3 0,6
24.10.2020 12:00:00 10,8 10,1 3,6
24.10.2020 11:00:00 11,7 10,7 0,4
24.10.2020 10:00:00 11,1 9,7 0,0
24.10.2020 09:00:00 10,2 9,2 0,2
24.10.2020 08:00:00 10,2 8,1 0,0
24.10.2020 07:00:00 10,0 7,0 0,0
24.10.2020 06:00:00 9,4 6,7 0,0
24.10.2020 05:00:00 9,0 6,3 0,0
24.10.2020 04:00:00 8,8 6,0 0,0
24.10.2020 03:00:00 8,0 5,3 0,0
24.10.2020 02:00:00 7,6 4,9 0,0
24.10.2020 01:00:00 7,5 5,1 0,0
24.10.2020 00:00:00 7,6 5,0 0,0
23.10.2020 23:00:00 7,4 5,0 0,0
23.10.2020 22:00:00 7,0 5,1 0,0
23.10.2020 21:00:00 7,6 4,9 0,0
23.10.2020 20:00:00 8,2 5,3 0,0
23.10.2020 19:00:00 8,3 5,1 0,0
23.10.2020 18:00:00 8,8 5,6 0,0
23.10.2020 17:00:00 9,5 5,9 0,2
23.10.2020 16:00:00 10,7 5,7 0,0
23.10.2020 15:00:00 11,6 5,7 0,0
23.10.2020 14:00:00 10,7 8,7 0,4
23.10.2020 13:00:00 10,5 9,2 0,0
23.10.2020 12:00:00 9,7 8,3 0,2
23.10.2020 11:00:00 8,7 7,7 0,6
23.10.2020 10:00:00 8,4 7,4 0,8
23.10.2020 09:00:00 7,5 6,4 0,8
23.10.2020 08:00:00 7,6 5,5 0,4
23.10.2020 07:00:00 7,8 4,1 0,0
23.10.2020 06:00:00 7,5 3,5 0,0
23.10.2020 05:00:00 7,2 3,1 0,0
23.10.2020 04:00:00 7,5 3,4 0,0
23.10.2020 03:00:00 7,7 3,4 0,0
23.10.2020 02:00:00 7,9 3,0 0,0
23.10.2020 01:00:00 7,9 3,1 0,0
23.10.2020 00:00:00 8,3 3,4 0,0
22.10.2020 23:00:00 8,7 3,5 0,0
22.10.2020 22:00:00 8,9 3,6 0,0
22.10.2020 21:00:00 9,4 3,7 0,0
22.10.2020 20:00:00 9,5 3,8 0,0
22.10.2020 19:00:00 9,6 4,0 0,0
22.10.2020 18:00:00 9,8 4,0 0,0
22.10.2020 17:00:00 10,3 4,4 0,0
22.10.2020 16:00:00 10,6 5,1 0,0
22.10.2020 15:00:00 11,4 7,3 0,0
22.10.2020 14:00:00 11,7 7,9 0,0
22.10.2020 13:00:00 11,8 9,4 0,0
22.10.2020 12:00:00 10,8 9,6 0,2
22.10.2020 11:00:00 10,2 9,4 0,2
22.10.2020 10:00:00 11,0 9,6 0,0
22.10.2020 09:00:00 10,3 10,1 0,2
22.10.2020 08:00:00 9,8 9,6 1,0
22.10.2020 07:00:00 9,6 9,4 2,4
22.10.2020 06:00:00 9,1 8,5 0,4
22.10.2020 05:00:00 9,4 8,0 0,0
22.10.2020 04:00:00 9,7 7,7 0,0
22.10.2020 03:00:00 9,9 7,5 0,0
22.10.2020 02:00:00 10,2 6,8 0,0
22.10.2020 01:00:00 10,3 7,7 0,0
22.10.2020 00:00:00 10,3 8,2 0,0
21.10.2020 23:00:00 10,3 8,8 0,0
21.10.2020 22:00:00 11,0 9,9 0,0
21.10.2020 21:00:00 11,4 10,9 0,6
21.10.2020 20:00:00 11,7 10,9 1,0
21.10.2020 19:00:00 12,2 10,9 0,0
21.10.2020 18:00:00 11,8 10,6 0,2
21.10.2020 17:00:00 12,4 11,2 0,0

tt = Température de l'air
td = dewpoint
rr = Quantités de précipitations

stations d'obs. à proximité